Powrót do katalogu

FENGYUN 1C DEB

AktywnyPO
NORAD 30539·DEBRIS·🇨🇳 China

Wystrzelony May 10, 1999 z Taiyuan Satellite Launch Center

Loading…

Następne Przeloty (najbliższe 24 godziny)

TLE

ŚwieżeSource: Space-Track

Epoka: Sep 14, 2026, 11:11 UTC

1 30539U 99025AKD 26257.46616797  .00001031  00000-0  22339-3 0  9990
2 30539  98.8983 260.9721 0114902 156.9439 203.6973 14.56590753 33560

Śledź FENGYUN 1C DEB w czasie rzeczywistym z AllMySat

Download on the App Store